Weather Roundup
Issued by NWS

Home | Current Version | Previous Version | Text Only | Print | Product List | Glossary On
Versions: 1 2 3 4 5 6 7 8 9 10 11 12 13 14 15 16 17 18 19 20 21 22 23 24 25 26 27 28 29 30 31 32 33 34 35 36 37 38 39 40 41 42 43 44 45 46 47 48 49 50
000
NZUS93 KARX 262210
HRRWXR

CURRENT HOURLY OBSERVATIONS ACROSS
MUCH OF THE UPPER MISSISSIPPI VALLEY
NATIONAL WEATHER SERVICE LA CROSSE WI
500 PM CDT SUN APR 26 2015


...SOUTHEAST MINNESOTA...


CITY           SKY/WX    TMP DP  RH WIND       PRES   REMARKS
ROCHESTER      SUNNY     59  26  28 NE10      30.06F
ROCHESTER/MAYO FAIR      60  25  25 NW6       30.06F
WINONA         SUNNY     61  25  25 N8        30.05S
AUSTIN         SUNNY     57  27  30 N5        30.05F
ALBERT LEA     SUNNY     61  25  25 N8        30.05F
DODGE CENTER   SUNNY     57  27  30 N8        30.06F
PRESTON        SUNNY     57  27  31 N12       30.05F
OWATONNA       SUNNY     61  19  20 NE5       30.06F
FARIBAULT      SUNNY     63  21  20 N7        30.07S
$$

...ELSEWHERE IN MINNESOTA...


CITY           SKY/WX    TMP DP  RH WIND       PRES   REMARKS
MINNEAPOLIS    MOSUNNY   63  24  22 N12       30.08F
INTNL FALLS    SUNNY     60   7  12 NW6       30.15F
DULUTH         SUNNY     53  13  20 SE8       30.13F
RED WING       SUNNY     63  19  19 NE5       30.06S
REDWOOD FALLS  SUNNY     65  19  17 N8        30.06F
MANKATO        SUNNY     63  21  20 CALM      30.06F
WORTHINGTON    SUNNY     63  28  27 E6G17     30.04F
FAIRMONT       SUNNY     64  28  25 NE12      30.04F
$$

...SOUTHWEST WISCONSIN...


CITY           SKY/WX    TMP DP  RH WIND       PRES   REMARKS
LA CROSSE      SUNNY     65  23  20 N7        30.03F
PRAIRIE DU CHI SUNNY     61  22  21 W8        30.02S
BOSCOBEL       SUNNY     64  24  21 NE9G17    30.02F
LONE ROCK      SUNNY     62  27  26 N8        30.02F
PLATTEVILLE    SUNNY     59  29  31 N9        30.02S
FORT MC COY    SUNNY     62  19  18 NE13G18   30.04S
CAMP DOUGLAS   SUNNY     62  21  20 N13       30.02S
VIROQUA        FAIR      60  25  26 N9        30.03F
WIS DELLS      SUNNY     60  20  21 N6        30.02S
$$

...ELSEWHERE IN WISCONSIN...


CITY           SKY/WX    TMP DP  RH WIND       PRES   REMARKS
MILWAUKEE      MOSUNNY   48  29  47 NE12G21   30.04R
MADISON        MOSUNNY   60  26  27 NE12      30.01F
GREEN BAY      SUNNY     57  28  33 NE13      30.02S
EAU CLAIRE     SUNNY     62  21  20 N10G20    30.05F
BLACK RVR FLS  FAIR      64  18  17 NW6       30.03F
MEDFORD        SUNNY     59  22  24 N9G18     30.04S
WAUSAU         SUNNY     61  17  18 N10G20    30.01S
WIS RAPIDS     SUNNY     63  17  17 N14G20    30.03F
MARSHFIELD     SUNNY     63  22  20 N9        30.02F
RICE LAKE      SUNNY     60  24  24 NE12G17   30.09F
$$

...NORTHEAST IOWA...


CITY           SKY/WX    TMP DP  RH WIND       PRES   REMARKS
DECORAH        SUNNY     59  23  25 NE8G14    30.03S
MASON CITY     SUNNY     62  26  25 N9        30.05F
CHARLES CITY   SUNNY     61  25  25 VRB8G14   30.04F
OELWEIN        SUNNY     59  25  27 NE9       30.03F
$$

...ELSEWHERE IN IOWA...


CITY           SKY/WX    TMP DP  RH WIND       PRES   REMARKS
DES MOINES     SUNNY     63  27  25 E10G24    30.01F
IOWA CITY      SUNNY     60  33  36 N9        30.02F
FORT DODGE     SUNNY     63  30  29 E10       30.04S
$$

...NORTHERN ILLINOIS...


CITY           SKY/WX    TMP DP  RH WIND       PRES   REMARKS
CHICAGO-OHARE  MOSUNNY   54  25  32 NE13G22   30.00S
CHICAGO-MIDWAY MOSUNNY   55  24  30 N21       30.00F
MOLINE         SUNNY     60  32  34 NE9       29.99F
ROCKFORD       SUNNY     60  28  29 NE16      30.02S
PEORIA         SUNNY     60  34  37 NE13G18   29.98F
$$

NOTE: "FAIR" INDICATES FEW OR NO CLOUDS BELOW 12,000 FEET WITH NO
SIGNIFICANT WEATHER AND/OR OBSTRUCTIONS TO VISIBILITY. WIND
SPEEDS ARE IN MILES-PER-HOUR.



USA.gov is the U.S. government's official web portal to all federal, state and local government web resources and services.